Weather reports worldwide

Advertisment
South Uist Range, United Kingdom (3023): temperature & dewpoint: 06.12.2018 13:00:00 - 12.12.2018 13:00:00 (GMT)South Uist Range, United Kingdom (3023): temperature -20cm & temperature -100cm: 06.12.2018 13:00:00 - 12.12.2018 13:00:00 (GMT)South Uist Range, United Kingdom (3023): wind speed & gusts: 06.12.2018 13:00:00 - 12.12.2018 13:00:00 (GMT)South Uist Range, United Kingdom (3023): wind direction: 06.12.2018 13:00:00 - 12.12.2018 13:00:00 (GMT)South Uist Range, United Kingdom (3023): reduced air pressure: 06.12.2018 13:00:00 - 12.12.2018 13:00:00 (GMT)South Uist Range, United Kingdom (3023): visibility: 06.12.2018 13:00:00 - 12.12.2018 13:00:00 (GMT)South Uist Range, United Kingdom (3023): precipitation: 06.12.2018 13:00:00 - 12.12.2018 13:00:00 (GMT)
Date & Time tt [°C] td [°C] tt -20cm [°C] tt -100cm [°C] ff [km/h] ff [kn] fx [km/h] fx [kn] dd ppp [hPa] vv [km] rr [mm]
12.12.2018 13:00:00 8,9 7,9 - - 46 25 63 34 SSE 1011,5 6 -
12.12.2018 12:00:00 8,9 8,1 - - 42 23 57 31 SSE 1012,1 6 3,4
12.12.2018 11:00:00 8,9 8,4 - - 16 9 - - SSE 1012,7 8 0,6
12.12.2018 10:00:00 8,0 7,5 - - 9 5 - - ESE 1012,7 4,5 0,0
12.12.2018 09:00:00 7,5 7,0 7,2 8,2 8 4 - - SSE 1012,8 35 0,0
12.12.2018 08:00:00 7,5 7,0 - - 11 6 - - S 1012,7 30 0,0
12.12.2018 07:00:00 8,4 7,8 - - 13 7 - - S 1012,7 21 1,0
12.12.2018 06:00:00 8,6 7,9 - - 16 9 50 27 S 1012,3 2,8 0,8
12.12.2018 05:00:00 9,7 8,7 - - 35 19 52 28 S 1012,1 11 0,6
12.12.2018 04:00:00 9,5 8,6 - - 35 19 59 32 S 1012,5 8 0,8
12.12.2018 03:00:00 9,5 8,6 - - 41 22 61 33 SSE 1012,3 3,5 0,8
12.12.2018 02:00:00 9,4 8,4 - - 44 24 67 36 SSE 1012,3 2,9 0,4
12.12.2018 01:00:00 9,5 8,3 - - 52 28 72 39 SSE 1012,2 5 0,2
12.12.2018 00:00:00 9,6 7,9 - - 55 30 72 39 SSE 1012,3 16 0,0
11.12.2018 23:00:00 9,4 8,0 - - 50 27 72 39 SSE 1012,4 28 0,0
11.12.2018 22:00:00 9,6 8,3 - - 48 26 67 36 SSE 1012,3 20 0,0
11.12.2018 21:00:00 9,5 8,7 - - 39 21 65 35 SSE 1012,7 6 1,0
11.12.2018 20:00:00 9,7 8,6 - - 46 25 61 33 SSE 1012,9 5 0,8
11.12.2018 19:00:00 10,0 8,6 - - 50 27 76 41 SSE 1013,1 2,7 0,0
11.12.2018 18:00:00 9,7 8,4 - - 48 26 68 37 SSE 1012,9 12 0,4
11.12.2018 17:00:00 10,0 8,5 - - 48 26 74 40 SSE 1013,2 8 0,0
11.12.2018 16:00:00 10,2 8,3 - - 54 29 76 41 SSE 1012,7 35 0,0
11.12.2018 15:00:00 10,1 8,3 - - 54 29 74 40 SSE 1013,0 20 0,0
11.12.2018 14:00:00 10,1 8,4 - - 48 26 72 39 SSE 1013,8 14 0,0
11.12.2018 13:00:00 9,9 8,4 - - 54 29 68 37 SSE 1014,2 9 0,2
11.12.2018 12:00:00 10,0 8,2 - - 54 29 74 40 S 1014,5 16 0,0
11.12.2018 11:00:00 10,2 8,1 - - 50 27 72 39 SSE 1014,5 40 0,0
11.12.2018 10:00:00 9,6 7,9 - - 52 28 72 39 SSE 1014,5 16 0,0
11.12.2018 09:00:00 9,3 8,0 6,7 8,2 48 26 67 36 S 1014,7 22 0,0
11.12.2018 08:00:00 9,4 8,1 - - 48 26 68 37 S 1014,4 16 0,0
11.12.2018 07:00:00 9,6 8,1 - - 48 26 68 37 S 1014,7 18 0,0
11.12.2018 06:00:00 9,7 8,5 - - 46 25 61 33 S 1015,1 13 0,0
11.12.2018 05:00:00 9,4 8,4 - - 34 18 48 26 S 1015,8 12 0,0
11.12.2018 04:00:00 9,1 8,3 - - 34 18 50 27 S 1017,0 9 0,0
11.12.2018 03:00:00 9,2 8,5 - - 29 16 - - S 1017,4 9 0,0
11.12.2018 02:00:00 9,1 8,4 - - 35 19 50 27 S 1017,5 9 0,0
11.12.2018 01:00:00 8,9 8,1 - - 37 20 52 28 S 1018,2 6 0,0
11.12.2018 00:00:00 8,7 7,6 - - 39 21 54 29 S 1018,4 6 0,0
10.12.2018 23:00:00 8,3 7,2 - - 39 21 55 30 S 1018,9 8 0,0
10.12.2018 22:00:00 8,2 6,8 - - 39 21 55 30 SSE 1019,6 3,5 0,0
10.12.2018 21:00:00 8,1 6,1 - - 35 19 52 28 SSE 1019,8 20 0,0
10.12.2018 20:00:00 8,1 5,6 - - 42 23 57 31 SSE 1019,9 16 0,0
10.12.2018 19:00:00 8,1 5,7 - - 42 23 54 29 SSE 1020,5 29 0,0
10.12.2018 18:00:00 7,8 5,1 - - 26 14 - - SSE 1020,9 27 0,0
10.12.2018 17:00:00 7,3 5,3 - - 22 12 - - SSE 1021,7 26 0,0
10.12.2018 16:00:00 6,5 5,1 - - 15 8 - - SSE 1022,1 40 0,0
10.12.2018 15:00:00 7,0 5,3 - - 16 9 - - S 1022,7 17 0,2
10.12.2018 14:00:00 7,8 5,5 - - 22 12 - - SE 1023,0 28 0,0
10.12.2018 13:00:00 7,3 5,4 - - 16 9 - - SSE 1023,7 26 0,0
10.12.2018 12:00:00 7,0 4,7 - - 15 8 - - ESE 1024,1 35 0,0
10.12.2018 11:00:00 6,5 4,2 - - 15 8 - - SE 1024,0 30 0,0
10.12.2018 10:00:00 5,8 4,2 - - 13 7 - - SE 1023,8 35 0,0
10.12.2018 09:00:00 5,4 3,9 6,7 8,2 13 7 - - ESE 1023,7 35 0,0
10.12.2018 08:00:00 3,2 2,1 - - 5 3 - - E 1023,6 30 0,0
10.12.2018 07:00:00 2,7 1,7 - - 4 2 - - SE 1023,3 30 0,0
10.12.2018 06:00:00 2,9 1,9 - - 5 3 - - SE 1023,3 35 0,0
10.12.2018 05:00:00 2,6 1,4 - - 5 3 - - ESE 1022,9 35 0,0
10.12.2018 04:00:00 2,7 1,2 - - 5 3 - - SE 1022,5 45 0,0
10.12.2018 03:00:00 3,0 1,6 - - 5 3 - - E 1022,1 29 0,0
10.12.2018 02:00:00 3,4 1,7 - - 5 3 - - E 1021,7 19 0,0
10.12.2018 01:00:00 3,3 1,7 - - 5 3 - - E 1021,1 19 0,0
10.12.2018 00:00:00 3,9 2,4 - - 5 3 - - NE 1020,3 8 0,0
09.12.2018 23:00:00 5,2 2,7 - - 11 6 - - N 1019,8 30 0,2
09.12.2018 22:00:00 4,3 2,9 - - 8 4 - - E 1019,2 10 0,0
09.12.2018 21:00:00 4,1 2,7 - - 4 2 - - NNE 1018,7 16 0,0
09.12.2018 20:00:00 6,1 2,0 - - 15 8 - - NW 1017,8 9 0,0
09.12.2018 19:00:00 5,7 1,5 - - 16 9 - - NW 1017,0 25 0,0
09.12.2018 18:00:00 5,8 1,6 - - 16 9 - - NW 1016,2 11 0,0
09.12.2018 17:00:00 6,3 1,7 - - 18 10 - - NW 1015,2 19 0,0
09.12.2018 16:00:00 5,6 2,4 - - 16 9 - - NW 1014,4 18 0,0
09.12.2018 15:00:00 6,2 3,9 - - 11 6 - - WNW 1013,4 17 0,0
09.12.2018 14:00:00 4,8 3,0 - - 2 1 - - ENE 1012,7 40 0,0
09.12.2018 13:00:00 5,3 3,4 - - 13 7 - - NE 1011,8 35 0,0
09.12.2018 12:00:00 5,5 2,8 - - 16 9 - - N 1011,0 30 0,0
09.12.2018 11:00:00 5,8 3,3 - - 11 6 - - NNW 1010,1 30 0,0
09.12.2018 10:00:00 6,1 2,6 - - 15 8 - - NNW 1009,0 28 0,0
09.12.2018 09:00:00 5,9 3,0 7,0 8,2 13 7 - - NNW 1008,0 35 0,0
09.12.2018 08:00:00 5,1 3,0 - - 21 11 - - N 1006,4 21 0,0
09.12.2018 07:00:00 5,4 2,5 - - 16 9 - - N 1004,7 19 0,4
09.12.2018 06:00:00 5,6 2,9 - - 26 14 - - N 1003,2 11 0,0
09.12.2018 05:00:00 6,3 3,2 - - 18 10 - - NNW 1002,0 12 0,0
09.12.2018 04:00:00 4,9 3,2 - - 11 6 - - N 1000,3 20 0,0
09.12.2018 03:00:00 3,8 2,6 - - 16 9 - - N 998,7 19 0,0
09.12.2018 02:00:00 4,0 2,8 - - 16 9 - - N 996,9 16 0,0
09.12.2018 01:00:00 4,4 3,2 - - 15 8 - - N 995,2 17 0,0
09.12.2018 00:00:00 4,8 3,5 - - 15 8 - - N 993,5 27 0,0
08.12.2018 23:00:00 6,0 5,0 - - 16 9 - - N 992,2 26 0,0
08.12.2018 22:00:00 5,8 5,1 - - 15 8 - - NNE 991,1 27 0,2
08.12.2018 21:00:00 6,1 5,4 - - 15 8 - - NE 990,2 15 0,0
08.12.2018 20:00:00 5,1 4,4 - - 5 3 - - NNE 989,5 11 0,0
08.12.2018 19:00:00 4,1 3,1 - - 4 2 - - NNE 989,0 9 0,0
08.12.2018 18:00:00 4,3 3,1 - - 4 2 - - WNW 988,4 3,9 0,0
08.12.2018 17:00:00 3,6 2,3 - - 4 2 - - S 988,2 12 0,0
08.12.2018 16:00:00 5,2 3,8 - - 4 2 - - N 988,0 15 0,0
08.12.2018 15:00:00 6,4 4,5 - - 5 3 - - N 987,9 25 0,0
08.12.2018 14:00:00 7,3 5,0 - - 11 6 - - NW 988,3 14 0,0
08.12.2018 13:00:00 7,9 5,5 - - 16 9 - - W 988,6 11 0,0
08.12.2018 12:00:00 8,6 6,4 - - 15 8 - - W 989,4 24 0,0
08.12.2018 11:00:00 8,1 6,0 - - 18 10 - - WNW 989,5 21 0,2
08.12.2018 10:00:00 8,6 6,6 - - 26 14 - - W 990,3 9 0,0
08.12.2018 09:00:00 8,6 6,2 7,0 8,2 29 16 - - W 990,8 10 0,0
08.12.2018 08:00:00 8,7 5,9 - - 29 16 46 25 WNW 990,7 15 0,0
08.12.2018 07:00:00 8,9 7,1 - - 29 16 52 28 WNW 990,6 8 0,2
08.12.2018 06:00:00 8,4 6,7 - - 39 21 55 30 WNW 990,0 8 0,2
08.12.2018 05:00:00 9,0 6,5 - - 41 22 57 31 WNW 989,3 8 0,0
08.12.2018 04:00:00 9,1 6,5 - - 44 24 61 33 WNW 988,5 12 0,0
08.12.2018 03:00:00 8,6 6,4 - - 42 23 65 35 WNW 987,6 9 0,0
08.12.2018 02:00:00 9,0 6,8 - - 42 23 67 36 WNW 986,3 8 0,0
08.12.2018 01:00:00 9,2 6,6 - - 44 24 68 37 WNW 985,3 11 1,2
08.12.2018 00:00:00 8,8 6,4 - - 44 24 67 36 NW 984,2 10 0,0
07.12.2018 23:00:00 8,9 6,8 - - 44 24 67 36 WNW 982,8 9 0,4
07.12.2018 22:00:00 8,8 6,6 - - 44 24 67 36 WNW 981,2 9 0,2
07.12.2018 21:00:00 8,0 5,7 - - 42 23 68 37 WNW 980,6 10 0,0
07.12.2018 20:00:00 8,9 6,8 - - 50 27 72 39 W 979,8 8 0,2
07.12.2018 19:00:00 9,1 6,5 - - 55 30 85 46 W 979,0 8 0,0
07.12.2018 18:00:00 9,1 5,7 - - 61 33 91 49 W 978,0 8 0,0
07.12.2018 17:00:00 9,1 5,1 - - 72 39 98 53 W 977,3 8 0,0
07.12.2018 16:00:00 8,9 6,8 - - 74 40 100 54 W 976,6 7 0,6
07.12.2018 15:00:00 8,4 7,1 - - 65 35 100 54 W 976,4 4,6 0,4
07.12.2018 14:00:00 9,0 6,2 - - 70 38 107 58 W 976,0 8 0,4
07.12.2018 13:00:00 8,4 4,8 - - 80 43 111 60 WSW 976,1 7 0,6
07.12.2018 12:00:00 8,0 5,7 - - 80 43 117 63 WSW 976,1 2,5 0,6
07.12.2018 11:00:00 7,3 6,5 - - 70 38 119 64 WSW 976,1 5 2,0
07.12.2018 10:00:00 7,6 4,4 - - 93 50 120 65 WSW 975,4 4,7 0,4
07.12.2018 09:00:00 7,7 6,2 7,0 8,2 89 48 120 65 WSW 974,6 3,3 1,8
07.12.2018 08:00:00 7,5 5,7 - - 93 50 117 63 SW 974,0 2,4 0,6
07.12.2018 07:00:00 7,8 5,5 - - 85 46 120 65 SW 974,5 4,5 0,4
07.12.2018 06:00:00 8,2 5,5 - - 74 40 104 56 SSW 976,2 6 0,2
07.12.2018 05:00:00 8,5 5,4 - - 78 42 102 55 SSW 977,5 7 0,0
07.12.2018 04:00:00 8,6 5,7 - - 67 36 87 47 SSW 979,5 6 1,0
07.12.2018 03:00:00 9,5 8,4 - - 65 35 96 52 SSE 981,4 7 0,8
07.12.2018 02:00:00 8,4 6,9 - - 65 35 91 49 SSE 984,2 3,5 0,0
07.12.2018 01:00:00 9,3 6,5 - - 52 28 70 38 SSE 988,0 9 0,0
07.12.2018 00:00:00 9,1 7,4 - - 28 15 - - SSE 990,8 9 0,0
06.12.2018 23:00:00 9,4 8,1 - - 29 16 - - S 993,3 8 0,0
06.12.2018 22:00:00 8,9 7,8 - - 26 14 - - S 995,6 7 0,0
06.12.2018 21:00:00 8,7 7,6 - - 16 9 - - S 997,1 7 0,0
06.12.2018 20:00:00 9,1 7,5 - - 28 15 - - SSW 998,5 10 0,4
06.12.2018 19:00:00 9,2 7,6 - - 22 12 - - SW 999,2 6 0,0
06.12.2018 18:00:00 9,3 7,2 - - 24 13 - - SW 999,6 7 0,0
06.12.2018 17:00:00 9,6 6,2 - - 31 17 46 25 WSW 999,4 8 0,0
06.12.2018 16:00:00 9,8 6,5 - - 35 19 55 30 WSW 999,4 8 0,0
06.12.2018 15:00:00 10,2 6,5 - - 37 20 48 26 WSW 998,7 10 0,0
06.12.2018 14:00:00 10,2 6,5 - - 37 20 57 31 WSW 998,3 20 0,0
06.12.2018 13:00:00 10,4 5,6 - - 42 23 61 33 WSW 997,8 14 0,0

tt = temperature
td = dewpoint
tt -20cm = temperature -20cm
tt -100cm = temperature -100cm
ff = wind speed
fx = gusts
dd = wind direction
ppp = reduced air pressure
vv = visibility
rr = precipitation

Next stations